{"data":{"norad_id":54130,"intl_designator":"2022-138T","name":"ONEWEB-0512","alt_names":[],"object_type":"PAYLOAD","status":"ACTIVE","operator":null,"country":"UK","launch_date":"2022-10-22","launch_site_code":"SRILR","launch_vehicle":null,"mission":null,"orbit_class":"UNKNOWN","rcs_meters":null,"size_class":null,"mass_kg":null,"dimensions":null,"purposes":["comms"],"wikipedia_slug":null,"has_3d_model":false,"image_url":null,"decayed_at":null,"tle_current":{"epoch":"2026-05-25T04:25:14.726208Z","epoch_age_seconds":55661,"freshness":"FRESH","line1":"1 54130U 22138T   26145.18419822  .00000067  00000+0  13448-3 0  9997","line2":"2 54130  87.9150 309.5587 0001789  82.4022 277.7313 13.19727080173778","mean_motion":13.1972708,"eccentricity":0.0001789,"inclination_deg":87.915,"raan_deg":309.5587,"arg_perigee_deg":82.4022,"mean_anomaly_deg":277.7313,"bstar":0.00013448,"rev_number":17377,"period_min":109.11346912727,"perigee_km":1184.4094227901,"apogee_km":1187.1157860686,"semimajor_km":7563.8996044294,"source":"CELESTRAK","updated_at":"2026-05-25T13:38:22.587961Z"}}}